M0HZQ-1 Weather Reports


time (UTC)temp
C
wind
direction
speed
KPH
gust
KPH
rain 1hr
cm
rain 24hr
cm
rain mn
cm
humidity
%
barometer
mb
20260510140644 13 0 0.0 0.0 0.00 0.00 0.00 49 1016.7
20260510134944 13 0 0.0 0.0 0.00 0.00 0.00 49 1016.7
20260510133209 13 0 0.0 0.0 0.00 0.00 0.00 50 1016.7
20260510131329 13 0 0.0 0.0 0.00 0.00 0.00 49 1016.9
20260510125621 15 0 0.0 0.0 0.00 0.00 0.00 48 1017.0
20260510123809 14 0 0.0 0.0 0.00 0.00 0.00 50 1017.3
20260510121857 14 0 0.0 0.0 0.00 0.00 0.00 50 1017.3
20260510115950 13 0 0.0 0.0 0.00 0.00 0.00 51 1017.3
20260510114109 14 0 0.0 0.0 0.00 0.00 0.00 50 1017.6
20260510112504 14 0 0.0 0.0 0.00 0.00 0.00 50 1017.7
20260510110554 13 0 0.0 0.0 0.00 0.00 0.00 52 1017.9
20260510104934 13 0 0.0 0.0 0.00 0.00 0.00 52 1017.9
20260510103025 13 0 0.0 0.0 0.00 0.00 0.00 52 1017.9
20260510101311 13 0 0.0 0.0 0.00 0.00 0.00 54 1017.8
20260510095505 13 0 0.0 0.0 0.00 0.00 0.00 55 1017.9
20260510093629 13 0 0.0 0.0 0.00 0.00 0.00 56 1017.9
20260510091934 13 0 0.0 0.0 0.00 0.00 0.00 56 1018.2
20260510085944 13 0 0.0 0.0 0.00 0.00 0.00 57 1018.2
20260510084319 12 0 0.0 0.0 0.00 0.00 0.00 58 1018.3
20260510082654 12 0 0.0 0.0 0.00 0.00 0.00 59 1018.4
20260510081039 12 0 0.0 0.0 0.00 0.00 0.00 60 1018.4
20260510075245 11 0 0.0 0.0 0.00 0.00 0.00 62 1018.3
20260510073319 11 0 0.0 0.0 0.00 0.00 0.00 64 1018.5
20260510071324 11 0 0.0 0.0 0.00 0.00 0.00 65 1018.3
20260510065409 10 0 0.0 0.0 0.00 0.00 0.00 66 1018.4
20260510063509 10 0 0.0 0.0 0.00 0.00 0.00 66 1018.3
20260510061624 10 0 0.0 0.0 0.00 0.00 0.00 66 1018.3
20260510055644 10 0 0.0 0.0 0.00 0.00 0.00 67 1018.1
20260510053745 10 0 0.0 0.0 0.00 0.00 0.00 67 1017.9
20260510051919 10 0 0.0 0.0 0.00 0.00 0.00 67 1017.9
20260510050039 10 0 0.0 0.0 0.00 0.00 0.00 67 1017.9
20260510044059 10 0 0.0 0.0 0.00 0.00 0.00 67 1018.0
20260510042134 10 0 0.0 0.0 0.00 0.00 0.00 67 1018.1
20260510040509 10 0 0.0 0.0 0.00 0.00 0.00 67 1018.2
20260510034609 10 0 0.0 0.0 0.00 0.00 0.00 67 1018.2
20260510032749 10 0 0.0 0.0 0.00 0.00 0.00 66 1018.3
20260510031111 10 0 0.0 0.0 0.00 0.00 0.00 66 1018.4
20260510025459 10 0 0.0 0.0 0.00 0.00 0.00 66 1018.5
20260510023504 10 0 0.0 0.0 0.00 0.00 0.00 65 1018.6
20260510021823 10 0 0.0 0.0 0.00 0.00 0.00 64 1018.3
20260510020149 10 0 0.0 0.0 0.00 0.00 0.00 63 1018.5
20260510014209 10 0 0.0 0.0 0.00 0.00 0.00 61 1018.8
20260510012539 10 0 0.0 0.0 0.00 0.00 0.00 59 1018.7
20260510010631 11 0 0.0 0.0 0.00 0.00 0.00 56 1018.6
20260510005025 11 0 0.0 0.0 0.00 0.00 0.00 54 1018.5
20260510003231 12 0 0.0 0.0 0.00 0.00 0.00 52 1018.6
20260510001524 12 0 0.0 0.0 0.00 0.00 0.00 52 1018.6
20260509235709 12 0 0.0 0.0 0.00 0.00 0.00 51 1018.6
20260509233939 12 0 0.0 0.0 0.00 0.00 0.00 49 1018.7
20260509232159 13 0 0.0 0.0 0.00 0.00 0.00 47 1019.0
20260509230213 13 0 0.0 0.0 0.00 0.00 0.00 44 1018.8
20260509224614 14 0 0.0 0.0 0.00 0.00 0.00 42 1018.7
20260509222649 15 0 0.0 0.0 0.00 0.00 0.00 41 1018.7
20260509221039 15 0 0.0 0.0 0.00 0.00 0.00 41 1018.6
20260509215234 15 0 0.0 0.0 0.00 0.00 0.00 39 1018.7
20260509213459 16 0 0.0 0.0 0.00 0.00 0.00 37 1018.6
20260509211514 16 0 0.0 0.0 0.00 0.00 0.00 37 1018.3
20260509205739 16 0 0.0 0.0 0.00 0.00 0.00 35 1018.3
20260509204130 16 0 0.0 0.0 0.00 0.00 0.00 34 1018.3
20260509203754 16 0 0.0 0.0 0.00 0.00 0.00 34 1018.3
20260509202029 16 0 0.0 0.0 0.00 0.00 0.00 33 1018.2
20260509200229 16 0 0.0 0.0 0.00 0.00 0.00 33 1018.0
20260509194344 17 0 0.0 0.0 0.00 0.00 0.00 33 1018.0
20260509192717 17 0 0.0 0.0 0.00 0.00 0.00 32 1017.8
20260509191044 17 0 0.0 0.0 0.00 0.00 0.00 32 1017.6
20260509185344 18 0 0.0 0.0 0.00 0.00 0.00 32 1017.7
20260509183534 18 0 0.0 0.0 0.00 0.00 0.00 31 1017.5
20260509181814 18 0 0.0 0.0 0.00 0.00 0.00 32 1017.4
20260509175934 18 0 0.0 0.0 0.00 0.00 0.00 32 1017.3
20260509174202 18 0 0.0 0.0 0.00 0.00 0.00 33 1017.3
20260509172554 20 0 0.0 0.0 0.00 0.00 0.00 33 1017.1
20260509170909 20 0 0.0 0.0 0.00 0.00 0.00 33 1017.2
20260509165154 20 0 0.0 0.0 0.00 0.00 0.00 33 1017.4
20260509163534 20 0 0.0 0.0 0.00 0.00 0.00 33 1017.2
20260509161609 20 0 0.0 0.0 0.00 0.00 0.00 33 1017.2
20260509155814 21 0 0.0 0.0 0.00 0.00 0.00 33 1017.3
20260509154014 21 0 0.0 0.0 0.00 0.00 0.00 32 1017.5
20260509152204 21 0 0.0 0.0 0.00 0.00 0.00 33 1017.4
20260509150514 21 0 0.0 0.0 0.00 0.00 0.00 32 1017.4
20260509144649 21 0 0.0 0.0 0.00 0.00 0.00 33 1017.3
20260509142829 21 0 0.0 0.0 0.00 0.00 0.00 33 1016.9
20260509140914 21 0 0.0 0.0 0.00 0.00 0.00 32 1017.1